Location: Fort Wayne
(41.1310°N, 85.1290°W)
Time: 02:07:43
(UTC-04:00)

Iridium 37 - Visible Passes

Search period start: 01 May 2016 00:00
Search period end: 11 May 2016 00:00
Orbit: 776 x 779 km, 86.4° (Epoch: 30 April)

Date Brightness Start Highest point End Pass type
(mag) Time Alt. Az. Time Alt. Az. Time Alt. Az.
02 May 9.2 05:47:08 10° NE 05:48:29 11° ENE 05:49:49 10° E visible
05 May 8.6 05:45:39 10° NE 05:48:50 16° ENE 05:52:00 10° ESE visible
08 May 8.3 05:45:01 10° NNE 05:49:08 23° ENE 05:53:12 10° SE visible
09 May 8.7 05:13:01 10° NE 05:15:14 13° ENE 05:17:27 10° E visible
